This is the latest recevied weather packets stored in our database for station/object SP6KBU-12. If no packets are shown the sender has not sent any weather packets the latest 1 day(s).
| Time | Temp. | Humidity | Pressure | Rain* | Wind** | Luminosity | Snow |
|---|---|---|---|---|---|---|---|
| 1778072292 | 21.11° C | 36% | 1008.9 hPa | - | - | - | - |
| 1778071391 | 21.67° C | 37% | 1009 hPa | - | - | - | - |
| 1778068690 | 20° C | 42% | 1008.9 hPa | - | - | - | - |
| 1778066889 | 20° C | 42% | 1008.7 hPa | - | - | - | - |
| 1778065989 | 20° C | 41% | 1008.8 hPa | - | - | - | - |
| 1778061488 | 19.44° C | 45% | 1008.4 hPa | - | - | - | - |
| 1778060813 | 18.33° C | 46% | 1008.6 hPa | - | - | - | - |
| 1778058114 | 19.44° C | 44% | 1008.3 hPa | - | - | - | - |
| 1778057213 | 20° C | 44% | 1008.2 hPa | - | - | - | - |
| 1778056920 | 19.44° C | 45% | 1008 hPa | - | - | - | - |
| 1778055414 | 20.56° C | 48% | 1008.1 hPa | - | - | - | - |
| 1778054514 | 19.44° C | 50% | 1008.1 hPa | - | - | - | - |
| 1778050010 | 17.78° C | 52% | 1007.7 hPa | - | - | - | - |
| 1778048209 | 16.67° C | 56% | 1007.8 hPa | - | - | - | - |
| 1778046408 | 15.56° C | 65% | 1007.7 hPa | - | - | - | - |
| 1778045508 | 14.44° C | 68% | 1007.7 hPa | - | - | - | - |
| 1778044608 | 13.89° C | 69% | 1007.3 hPa | - | - | - | - |
| 1778041909 | 11.11° C | 69% | 1007.1 hPa | - | - | - | - |
| 1778041008 | 12.22° C | 67% | 1007.1 hPa | - | - | - | - |
| 1778040108 | 12.22° C | 68% | 1007 hPa | - | - | - | - |
| 1778039208 | 12.22° C | 68% | 1007 hPa | - | - | - | - |
| 1778038308 | 12.22° C | 68% | 1007 hPa | - | - | - | - |
| 1778037408 | 12.22° C | 68% | 1007.1 hPa | - | - | - | - |
| 1778036508 | 12.22° C | 69% | 1007.1 hPa | - | - | - | - |
| 1778035608 | 12.22° C | 69% | 1006.9 hPa | - | - | - | - |
* Rain since midnight (hover to see other rain measurements)
** Current wind speed in m/s (hover to see current wind gust speed)